THOR ABLESTAR DEB, 558

Orbit data source: Space-Track

THOR ABLESTAR DEB, 558 is space debris in LEO originally from a launch on Thu, 29 Jun 1961 UTC launched from the Air Force Eastern Test Range (AFETR). Debris objects in space refer to the collection of defunct objects orbiting the Earth. Examples of debris include non-operational satellites, rocket bodies, and fragments generated from explosions, collisions, or faulty payload assembly.

Loading next visibility...
Identifier
558, 1961-015GQ
Orbit
LEO
Country
Flag of USUS
Related business
Manufacturer
Unknown
Mission
Spacecraft
Bus & Motor
Unknown
Mass
Unknown
Launch date (UTC)
1961-06-29 (64 years ago)
Launch vehicle
Unknown
Launch site
Air Force Eastern Test Range (AFETR)
Object type
Payload
Rocket body
Debris
Shape & HBR
Unknown shape, 0.2 m
Radar Cross Section
Small (<0.1 m²)

Expand to show TLE details & history
Last TLE update: 13 hours ago

TLE from 13 hours ago
0 THOR ABLESTAR DEB
1 00558U 61015GQ  25352.02314711  .00000067  00000-0  32562-3 0  9991
2 00558  65.6961 184.1800 0472235 172.8116 349.3151 12.86474911 26258
Epoch: 2025-12-18T00:33Z
TLE epoch observation values (Epoch: 2025-12-18T00:33:19.910Z)
Latitude
17.21146°
Longitude
-99.0366°
Altitude
960.427 km
Speed
7.542 km/s
True Right ascension
23h 44m 43s
True Declination
17° 07' 02"
Sunlit
Object was in daylight at epoch
Visualization orbit readout
Latitude
Unknown
Longitude
Unknown
Altitude
Unknown
Speed
Unknown
Apparent Right ascension
Unknown
Apparent Declination
Unknown
Sunlit
N/A
Visualization observer readout
Local Sidereal Time
12:07:24
Azimuth
Unknown
Elevation
Unknown
Doppler factor
Unknown
Orbital elements
Apogee altitude
1,677.395 km
Perigee altitude
950.882 km
Semi-major axis
7,692.276 km
Eccentricity
0.04722
Inclination
65.6961°
RAAN
184.18°
Arg. of periapsis
172.8116°
True anomaly
348.25023°
Mean anomaly
349.3151°
Eccentric anomaly
348.78905°
Mean motion
3.21707 °/min
Orbital period
111.9 mins
BSTAR
0.00032562
Loading maneuver chart data...
Computing Atmospheric mass density...

Documentation

Showing up to 5 results
|